User: anonymous   Login
Location: Oshawa
(43.9000°N, 78.8670°W)
Time: 11:50:13
(UTC-05:00)
Language:

Cosmos 1821 Rocket - Orbit

View from above orbital plane
View from above orbital plane
View from above satellite
View from above satellite

Ground track
Ground track

The orbit data is extracted from the following two-line orbital elements,

1 17526U 87017B   15057.77532723  .00000086  00000-0  71716-4 0  9998
2 17526 082.9045 308.9399 0040955 147.8129 273.2497 13.76729629390577
Epoch (UTC): 26 February 2015 18:36:28
Eccentricity: 0.0040955
inclination: 82.9045°
perigee height: 945 km
apogee height: 1005 km
right ascension of ascending node: 308.9399°
argument of perigee: 147.8129°
revolutions per day: 13.76729629
mean anomaly at epoch: 273.2497°
orbit number at epoch: 39057

The dashed part of the orbit path shows where the satellite is in the earth's shadow,  

DLR